To NAV CANADA Home Page Login to a new session Search on AWWS site Feedback and Comments Disclaimer Vers la page française équivalente Tips FAQ What's new on the site To the Forecasts and Observations / NOTAM section To "File a Flight Plan" website Publications and other links Update of the User's profile FIC Telephone Numbers My Weather Data Folder Route Weather Data Regional Weather Data Local Weather Data To the Forecasts and Observations / NOTAM section
Request Generated 09/30/2016 at 09:59:56 UTC . Weather information available at that time is displayed.

METAR/TAF

HOPE/BC    (show WxCam)

METAR CYHE 300900Z AUTO 00000KT 9SM CLR 09/08 A3005 RMK SLP177=
METAR CYHE 300800Z AUTO 22003KT 9SM SCT100 09/08 A3004 RMK SLP175=
METAR CYHE 300700Z AUTO 21005KT 180V280 9SM FEW180 12/08 A3005 RMK
SLP178=

CYHE - No TAF is issued for this station

Your time UTC time
Weather data provided by Environment Canada and NAV CANADA